Location: Unspecified
(0.0000°N, 0.0000°E)
Time: 19:36:27
(UTC+00:00)

Vanguard 1 - Pass Details

Date: 16 April 2026
Orbit: 654 x 3817 km, 34.2° (Epoch: 18 May)

Event Time Altitude Azimuth Distance (km) Brightness Sun altitude
Rises 22:15:33 0° 260° (W) 6,770 14.7 -62.1°
Reaches altitude 10° 22:20:10 10° 268° (W) 6,107 14.3 -63.2°
Maximum altitude 22:38:53 39° 330° (NNW) 4,877 13.4 -67.4°
Drops below altitude 10° 22:59:12 10° 33° (NNE) 6,474 14.2 -71.7°
Sets 23:04:28 0° 41° (NE) 7,181 14.5 -72.8°
